Location: Newark
(44.3681°N, 100.3364°W)
Time: 18:19:07
(UTC+00:00)

S-56A Canister/Altair - Pass Details

Date: 29 February 2020
Orbit: 634 x 2498 km, 38.9° (Epoch: 02 April)

Event Time Altitude Azimuth Distance (km) Brightness Sun altitude
Rises 15:20:57 0° 228° (SW) 4,977 11.5 19.4°
Reaches altitude 10° 15:23:59 10° 223° (SW) 4,212 11.3 19.8°
Maximum altitude 15:35:26 52° 152° (SSE) 2,711 11.3 21.5°
Drops below altitude 10° 15:49:39 10° 83° (E) 5,166 12.5 23.5°
Sets 15:53:48 0° 79° (E) 6,151 12.7 24.1°
